Torna al catalogo

THORAD AGENA D DEB

AttivoLEO
NORAD 4217·DEBRIS·🇺🇸 United States

Lanciato Sep 30, 1969 da Vandenberg Space Force Base

Loading…

Prossimi Passaggi (prossime 24 ore)

TLE

AggiornatoSource: Space-Track

Epoca: Sep 14, 2026, 13:01 UTC

1 04217U 69082CG  26257.54243999  .00000599  00000-0  19818-3 0  9999
2 04217  70.0379 304.2778 0036568 249.1998 110.5214 14.42155701960686

Traccia THORAD AGENA D DEB in tempo reale con AllMySat

Download on the App Store